Terminal Aerodrome Forecast
Issued by NWS Austin/San Antonio, TX

Home | Current Version | Previous Version | Text Only | Print | Product List | Glossary On
Versions: 1 2 3 4 5 6 7 8 9 10 11 12 13 14 15 16 17 18 19 20 21 22 23 24 25 26
000
FTUS44 KEWX 012000 AAA
TAFSAT
TAF AMD
KSAT 012020Z 0120/0224 01009KT 6SM BR OVC006
      TEMPO 0120/0122 3SM -DZ BR
     FM020300 02007KT 2SM -DZ BR OVC003
     FM021800 03006KT 5SM BR OVC006=

USA.gov is the U.S. government's official web portal to all federal, state and local government web resources and services.